VLG47Y LEBL-LSZH

Flight info

Callsign VLG47Y
Flight time N/A
Altitude 34000
Route DALIN DCT PIVUS DCT DIBER DCT ADITA DCT MAXIR DCT LUSOL DCT BODRU DCT OKTET DCT IRMAR DCT KINES DCT VANAS DCT MOBLO DCT LAMUR DCT KORED N871 BERSU
Aircraft A321/M-SDE3FGHIRWY/LB1

Departure

Time N/A
Airport Josep Tarradellas Barcelona-El Prat Airport (LEBL)

Arrival

Time 2026-05-03 21:24
Airport Zürich Airport (LSZH)
Time Latitude Longitude Altitude Speed Heading
2026-05-03 20:15 41.56659 2.91667 18339 ft 416 kts 62°
2026-05-03 20:15 41.58047 2.95080 18849 ft 420 kts 62°
2026-05-03 20:15 41.59448 2.98529 19363 ft 424 kts 62°
2026-05-03 20:15 41.60855 3.02002 19886 ft 427 kts 62°
2026-05-03 20:16 41.62271 3.05503 20419 ft 430 kts 62°
2026-05-03 20:16 41.63697 3.09035 20951 ft 433 kts 62°
2026-05-03 20:16 41.65135 3.12594 21480 ft 436 kts 62°
2026-05-03 20:16 41.66581 3.16177 21994 ft 439 kts 62°
2026-05-03 20:17 41.68032 3.19793 22496 ft 442 kts 63°
2026-05-03 20:17 41.69408 3.23488 22990 ft 445 kts 65°
2026-05-03 20:17 41.70681 3.27208 23457 ft 448 kts 67°
2026-05-03 20:17 41.71922 3.31043 23879 ft 450 kts 68°
2026-05-03 20:18 41.73150 3.34914 24289 ft 452 kts 68°
2026-05-03 20:18 41.74388 3.38794 24701 ft 454 kts 67°
2026-05-03 20:18 41.75651 3.42682 25102 ft 456 kts 67°
2026-05-03 20:18 41.76941 3.46579 25507 ft 458 kts 66°
2026-05-03 20:19 41.78245 3.50478 25899 ft 460 kts 66°
2026-05-03 20:19 41.79561 3.54404 26306 ft 462 kts 66°
2026-05-03 20:19 41.80878 3.58347 26697 ft 464 kts 66°
2026-05-03 20:19 41.82194 3.62308 27090 ft 466 kts 66°
2026-05-03 20:20 41.83496 3.66249 27467 ft 468 kts 66°
2026-05-03 20:20 41.84814 3.70250 27832 ft 470 kts 66°
2026-05-03 20:20 41.86135 3.74272 28204 ft 472 kts 66°
2026-05-03 20:20 41.87465 3.78318 28559 ft 474 kts 66°
2026-05-03 20:21 41.88795 3.82373 28924 ft 476 kts 66°
2026-05-03 20:21 41.90137 3.86460 29273 ft 478 kts 66°
2026-05-03 20:21 41.91478 3.90559 29637 ft 480 kts 67°
2026-05-03 20:21 41.92822 3.94677 30005 ft 482 kts 67°
2026-05-03 20:22 41.94167 3.98808 30315 ft 484 kts 67°
2026-05-03 20:22 41.95513 4.02949 30696 ft 483 kts 67°
2026-05-03 20:22 41.96856 4.07079 31126 ft 482 kts 67°
2026-05-03 20:22 41.98196 4.11204 31535 ft 481 kts 67°
2026-05-03 20:23 41.99530 4.15315 31944 ft 479 kts 67°
2026-05-03 20:23 42.00859 4.19420 32352 ft 478 kts 67°
2026-05-03 20:23 42.02167 4.23468 32746 ft 477 kts 67°
2026-05-03 20:23 42.03487 4.27560 33140 ft 477 kts 67°
2026-05-03 20:24 42.04805 4.31653 33527 ft 476 kts 67°
2026-05-03 20:24 42.06122 4.35737 33902 ft 476 kts 66°
2026-05-03 20:24 42.07691 4.39654 34236 ft 476 kts 57°
2026-05-03 20:24 42.09667 4.43221 34530 ft 476 kts 48°
2026-05-03 20:25 42.12009 4.46360 34813 ft 475 kts 40°
2026-05-03 20:25 42.14487 4.49310 35098 ft 476 kts 40°
2026-05-03 20:25 42.16963 4.52270 35387 ft 476 kts 41°
2026-05-03 20:25 42.19433 4.55239 35676 ft 476 kts 41°
2026-05-03 20:26 42.21899 4.58214 35975 ft 476 kts 41°
2026-05-03 20:26 42.24337 4.61164 36263 ft 476 kts 41°
2026-05-03 20:26 42.26806 4.64152 36546 ft 477 kts 41°
2026-05-03 20:26 42.29273 4.67140 36814 ft 477 kts 41°
2026-05-03 20:27 42.31745 4.70139 37087 ft 477 kts 41°
2026-05-03 20:27 42.34214 4.73133 37332 ft 477 kts 41°
2026-05-03 20:27 42.36685 4.76137 37571 ft 477 kts 41°
2026-05-03 20:27 42.39143 4.79132 37807 ft 477 kts 41°
2026-05-03 20:28 42.41619 4.82150 38019 ft 478 kts 41°
2026-05-03 20:28 42.46574 4.88183 38079 ft 479 kts 41°
2026-05-03 20:29 42.51531 4.94230 38073 ft 480 kts 41°
2026-05-03 20:29 42.56483 5.00291 38081 ft 480 kts 41°
2026-05-03 20:30 42.61439 5.06362 38086 ft 480 kts 41°
2026-05-03 20:30 42.66358 5.12424 38094 ft 481 kts 41°
2026-05-03 20:31 42.71314 5.18544 38097 ft 481 kts 41°
2026-05-03 20:31 42.76280 5.24667 38097 ft 482 kts 41°
2026-05-03 20:32 42.81218 5.30762 38099 ft 482 kts 41°
2026-05-03 20:32 42.86213 5.36955 38108 ft 483 kts 41°
2026-05-03 20:33 42.91138 5.43099 38111 ft 483 kts 41°
2026-05-03 20:33 42.96100 5.49300 38114 ft 484 kts 41°
2026-05-03 20:34 43.01068 5.55502 38130 ft 484 kts 41°
2026-05-03 20:34 43.05196 5.60660 38117 ft 484 kts 41°
2026-05-03 20:35 43.10164 5.66891 38134 ft 484 kts 41°
2026-05-03 20:35 43.15135 5.73131 38133 ft 484 kts 41°
2026-05-03 20:36 43.20094 5.79376 38128 ft 484 kts 41°
2026-05-03 20:36 43.25045 5.85645 38134 ft 484 kts 41°
2026-05-03 20:37 43.29994 5.91908 38135 ft 484 kts 41°
2026-05-03 20:37 43.34942 5.98100 38125 ft 483 kts 37°
2026-05-03 20:38 43.40666 6.02759 38136 ft 477 kts 18°
2026-05-03 20:38 43.47039 6.04806 38130 ft 467 kts 359°
2026-05-03 20:39 43.53522 6.05432 38133 ft 467 kts 360°
2026-05-03 20:39 43.60005 6.06097 38135 ft 468 kts
2026-05-03 20:40 43.66504 6.06773 38146 ft 468 kts 360°
2026-05-03 20:40 43.72960 6.07425 38137 ft 469 kts
2026-05-03 20:41 43.79353 6.09438 38139 ft 477 kts 19°
2026-05-03 20:41 43.85359 6.13422 38139 ft 479 kts 23°
2026-05-03 20:42 43.91342 6.17511 38140 ft 479 kts 23°
2026-05-03 20:42 43.97327 6.21595 38141 ft 480 kts 23°
2026-05-03 20:43 44.03315 6.25699 38146 ft 480 kts 23°
2026-05-03 20:43 44.09299 6.29804 38148 ft 480 kts 23°
2026-05-03 20:44 44.15288 6.33921 38151 ft 480 kts 23°
2026-05-03 20:44 44.21235 6.38017 38150 ft 480 kts 23°
2026-05-03 20:45 44.27217 6.42146 38151 ft 480 kts 23°
2026-05-03 20:45 44.33197 6.46297 38153 ft 480 kts 23°
2026-05-03 20:46 44.38816 6.50199 38148 ft 479 kts 23°
2026-05-03 20:46 44.44759 6.54327 38155 ft 479 kts 23°
2026-05-03 20:47 44.50729 6.58482 38156 ft 479 kts 23°
2026-05-03 20:47 44.56651 6.62629 38156 ft 479 kts 23°
2026-05-03 20:48 44.62597 6.66793 38161 ft 478 kts 23°
2026-05-03 20:48 44.68559 6.70969 38161 ft 478 kts 23°
2026-05-03 20:49 44.74507 6.75161 38153 ft 477 kts 23°
2026-05-03 20:49 44.80695 6.78174 38159 ft 468 kts
2026-05-03 20:50 44.87116 6.78569 38150 ft 458 kts 352°
2026-05-03 20:50 44.93488 6.78121 38152 ft 459 kts 353°
2026-05-03 20:51 44.99829 6.77732 38147 ft 459 kts 353°
2026-05-03 20:51 45.06224 6.77318 38155 ft 460 kts 352°
2026-05-03 20:52 45.12582 6.76882 38157 ft 460 kts 352°
2026-05-03 20:52 45.18976 6.76453 38145 ft 460 kts 353°
2026-05-03 20:53 45.25378 6.76032 38142 ft 460 kts 353°
2026-05-03 20:53 45.31781 6.75614 38130 ft 460 kts 353°
2026-05-03 20:54 45.38144 6.75192 38133 ft 461 kts 353°
2026-05-03 20:54 45.47763 6.74553 38126 ft 461 kts 353°
2026-05-03 20:55 45.54182 6.74122 38124 ft 462 kts 353°
2026-05-03 20:55 45.60598 6.73683 38120 ft 462 kts 353°
2026-05-03 20:56 45.67017 6.73240 38116 ft 462 kts 353°
2026-05-03 20:56 45.73399 6.72801 38116 ft 462 kts 353°
2026-05-03 20:57 45.79844 6.72890 38106 ft 468 kts
2026-05-03 20:57 45.86112 6.75604 38105 ft 476 kts 22°
2026-05-03 20:58 45.92132 6.79555 38106 ft 476 kts 21°
2026-05-03 20:58 45.98161 6.83487 38101 ft 476 kts 21°
2026-05-03 20:59 46.04194 6.87423 38091 ft 476 kts 21°
2026-05-03 20:59 46.10216 6.91375 38100 ft 476 kts 22°
2026-05-03 21:00 46.15227 6.94682 38082 ft 476 kts 22°
2026-05-03 21:00 46.22220 6.99309 38092 ft 476 kts 22°
2026-05-03 21:01 46.25238 7.01305 37834 ft 477 kts 22°
2026-05-03 21:01 46.28266 7.03308 37146 ft 479 kts 22°
2026-05-03 21:01 46.31289 7.05311 36555 ft 479 kts 22°
2026-05-03 21:01 46.34322 7.07323 35866 ft 481 kts 22°
2026-05-03 21:02 46.37366 7.09345 35124 ft 483 kts 22°
2026-05-03 21:02 46.40442 7.11388 34311 ft 489 kts 22°
2026-05-03 21:02 46.43546 7.13450 33330 ft 494 kts 22°
2026-05-03 21:02 46.46678 7.15538 32439 ft 495 kts 22°
2026-05-03 21:03 46.49796 7.17627 31886 ft 490 kts 22°
2026-05-03 21:03 46.52878 7.19699 31302 ft 487 kts 22°
2026-05-03 21:03 46.55947 7.21765 30704 ft 485 kts 22°
2026-05-03 21:03 46.59003 7.23820 30118 ft 482 kts 22°
2026-05-03 21:04 46.62005 7.25838 29517 ft 479 kts 22°
2026-05-03 21:04 46.65015 7.27861 28949 ft 474 kts 22°
2026-05-03 21:04 46.67997 7.29867 28387 ft 469 kts 22°
2026-05-03 21:04 46.70942 7.31850 27824 ft 464 kts 23°
2026-05-03 21:05 46.73861 7.33821 27285 ft 460 kts 23°
2026-05-03 21:05 46.76759 7.35779 26734 ft 456 kts 23°
2026-05-03 21:05 46.79623 7.37715 26205 ft 451 kts 23°
2026-05-03 21:05 46.82434 7.39699 25675 ft 448 kts 28°
2026-05-03 21:06 46.84970 7.42215 25177 ft 445 kts 39°
2026-05-03 21:06 46.87183 7.45358 24671 ft 442 kts 49°
2026-05-03 21:06 46.89095 7.48858 24188 ft 438 kts 51°
2026-05-03 21:06 46.90983 7.52342 23708 ft 435 kts 51°
2026-05-03 21:07 46.92864 7.55802 23186 ft 432 kts 51°
2026-05-03 21:07 46.94725 7.59218 22746 ft 428 kts 51°
2026-05-03 21:07 46.96569 7.62609 22275 ft 424 kts 51°
2026-05-03 21:07 46.98372 7.65934 21825 ft 420 kts 51°
2026-05-03 21:08 47.00179 7.69276 21376 ft 417 kts 51°
2026-05-03 21:08 47.01977 7.72600 20901 ft 414 kts 51°
2026-05-03 21:08 47.03758 7.75894 20437 ft 411 kts 51°
2026-05-03 21:08 47.05526 7.79168 19956 ft 408 kts 51°
2026-05-03 21:09 47.07281 7.82426 19478 ft 406 kts 51°
2026-05-03 21:09 47.09016 7.85656 18990 ft 403 kts 52°
2026-05-03 21:09 47.10747 7.88884 18508 ft 401 kts 52°
2026-05-03 21:09 47.12470 7.92095 17965 ft 399 kts 52°
2026-05-03 21:10 47.13978 7.95477 17479 ft 394 kts 63°
2026-05-03 21:10 47.15142 7.99082 16977 ft 389 kts 65°
2026-05-03 21:10 47.16266 8.02617 16503 ft 385 kts 65°
2026-05-03 21:10 47.17289 8.05825 16065 ft 381 kts 65°
2026-05-03 21:11 47.18367 8.09197 15601 ft 378 kts 65°
2026-05-03 21:11 47.19481 8.12687 15040 ft 377 kts 65°
2026-05-03 21:11 47.20629 8.16160 14477 ft 376 kts 59°
2026-05-03 21:11 47.22331 8.19028 13912 ft 374 kts 36°
2026-05-03 21:12 47.23814 8.20287 13510 ft 370 kts 20°
2026-05-03 21:12 47.25422 8.20717 13719 ft 322 kts 346°
2026-05-03 21:12 47.27576 8.20182 13745 ft 318 kts 348°
2026-05-03 21:13 47.29721 8.19394 12818 ft 322 kts 338°
2026-05-03 21:13 47.31791 8.18190 11941 ft 318 kts 333°
2026-05-03 21:13 47.33758 8.16826 11386 ft 310 kts 330°
2026-05-03 21:13 47.35697 8.15363 10937 ft 313 kts 329°
2026-05-03 21:14 47.37620 8.13869 10515 ft 312 kts 329°
2026-05-03 21:14 47.39512 8.12403 10390 ft 301 kts 329°
2026-05-03 21:14 47.41331 8.11006 10295 ft 289 kts 329°
2026-05-03 21:14 47.43093 8.09665 10166 ft 280 kts 329°
2026-05-03 21:15 47.44802 8.08378 10021 ft 272 kts 329°
2026-05-03 21:15 47.46499 8.07103 9599 ft 274 kts 329°
2026-05-03 21:15 47.48197 8.05830 9224 ft 274 kts 330°
2026-05-03 21:15 47.49897 8.04553 8846 ft 275 kts 330°
2026-05-03 21:16 47.51596 8.03337 8532 ft 275 kts 338°
2026-05-03 21:16 47.53480 8.03127 8258 ft 276 kts 13°
2026-05-03 21:16 47.55105 8.04512 8020 ft 271 kts 50°
2026-05-03 21:16 47.55979 8.06907 7782 ft 263 kts 74°
2026-05-03 21:17 47.56418 8.09511 7526 ft 258 kts 81°
2026-05-03 21:17 47.56651 8.11213 7370 ft 253 kts 81°
2026-05-03 21:17 47.57113 8.14602 6946 ft 248 kts 81°
2026-05-03 21:17 47.57450 8.17077 6688 ft 242 kts 80°
2026-05-03 21:18 47.57923 8.19438 6435 ft 235 kts 72°
2026-05-03 21:18 47.58505 8.21662 6187 ft 229 kts 70°
2026-05-03 21:18 47.59102 8.23794 5957 ft 226 kts 69°
2026-05-03 21:18 47.59705 8.25937 5719 ft 224 kts 69°
2026-05-03 21:19 47.60297 8.28066 5495 ft 222 kts 69°
2026-05-03 21:19 47.60861 8.30126 5291 ft 209 kts 69°
2026-05-03 21:19 47.61293 8.32113 5096 ft 196 kts 82°
2026-05-03 21:19 47.61282 8.34033 4967 ft 180 kts 102°
2026-05-03 21:20 47.60898 8.35726 4811 ft 169 kts 120°
2026-05-03 21:20 47.60222 8.37124 4617 ft 166 kts 136°
2026-05-03 21:20 47.59381 8.38286 4400 ft 165 kts 139°
2026-05-03 21:20 47.58539 8.39446 4189 ft 165 kts 139°
2026-05-03 21:21 47.57698 8.40602 3975 ft 165 kts 139°
2026-05-03 21:21 47.56857 8.41758 3755 ft 165 kts 139°
2026-05-03 21:21 47.56034 8.42887 3562 ft 160 kts 139°
2026-05-03 21:21 47.55221 8.44003 3340 ft 158 kts 139°
2026-05-03 21:22 47.54416 8.45107 3129 ft 157 kts 139°
2026-05-03 21:22 47.53614 8.46207 2910 ft 157 kts 139°
2026-05-03 21:22 47.52812 8.47305 2729 ft 156 kts 139°
2026-05-03 21:22 47.52016 8.48393 2554 ft 155 kts 139°
2026-05-03 21:23 47.51228 8.49465 2334 ft 153 kts 139°
2026-05-03 21:23 47.50447 8.50528 2053 ft 151 kts 138°
2026-05-03 21:23 47.49670 8.51568 1829 ft 150 kts 136°
2026-05-03 21:23 47.48927 8.52621 1639 ft 149 kts 136°
2026-05-03 21:24 47.48160 8.53670 1478 ft 150 kts 137°
2026-05-03 21:24 47.47423 8.54673 1406 ft 131 kts 138°
2026-05-03 21:24 47.46839 8.55472 1399 ft 98 kts 136°
2026-05-03 21:24 47.46534 8.55876 1398 ft 43 kts 149°
2026-05-03 21:25 47.46358 8.55964 1404 ft 12 kts 166°
2026-05-03 21:25 47.46310 8.55978 1405 ft 0 kts 169°
2026-05-03 21:25 47.46305 8.55979 1403 ft 0 kts 169°
2026-05-03 21:26 47.46303 8.55980 1402 ft 1 kts 169°
2026-05-03 21:26 47.46288 8.55984 1399 ft 3 kts 169°
2026-05-03 21:26 47.46258 8.55993 1405 ft 5 kts 169°
2026-05-03 21:26 47.46214 8.56004 1402 ft 7 kts 175°
2026-05-03 21:27 47.46156 8.55999 1397 ft 9 kts 186°
2026-05-03 21:27 47.46083 8.55988 1397 ft 11 kts 186°
2026-05-03 21:27 47.45997 8.55973 1397 ft 13 kts 186°
2026-05-03 21:27 47.45909 8.55941 1397 ft 13 kts 199°
2026-05-03 21:28 47.45832 8.55898 1400 ft 12 kts 200°
2026-05-03 21:28 47.45822 8.55893 1405 ft 0 kts 200°
2026-05-03 21:31 47.45821 8.55892 1405 ft 1 kts 200°
2026-05-03 21:31 47.45811 8.55886 1402 ft 3 kts 200°
2026-05-03 21:32 47.45789 8.55880 1399 ft 4 kts 187°
2026-05-03 21:32 47.45757 8.55874 1401 ft 5 kts 187°
2026-05-03 21:32 47.45714 8.55867 1400 ft 7 kts 187°
2026-05-03 21:32 47.45653 8.55859 1397 ft 10 kts 185°
2026-05-03 21:33 47.45573 8.55848 1397 ft 9 kts 185°
2026-05-03 21:33 47.45523 8.55847 1397 ft 7 kts 162°
2026-05-03 21:33 47.45499 8.55912 1401 ft 7 kts 98°
2026-05-03 21:33 47.45493 8.55950 1399 ft 1 kts 121°
2026-05-03 21:34 47.45483 8.55952 1403 ft 2 kts 167°
2026-05-03 21:34 47.45459 8.55953 1397 ft 4 kts 180°
2026-05-03 21:34 47.45430 8.55950 1397 ft 3 kts 185°
2026-05-03 21:34 47.45418 8.55948 1397 ft 0 kts 185°